Regional Weather Roundup
Issued by NWS

Home | Current Version | Previous Version | Text Only | Print | Product List | Glossary Off
Versions: 1 2 3 4 5 6 7 8 9 10 11 12 13 14 15 16 17 18 19 20 21 22 23 24 25 26 27 28 29 30 31 32 33 34 35 36 37 38 39 40 41 42 43 44 45 46 47 48 49 50

000
ASUS43 KIND 061559
RWRIN

WEATHER ROUNDUP FOR INDIANA
NATIONAL WEATHER SERVICE INDIANAPOLIS IN
1200 PM EDT WED MAY 06 2015

NOTE: "FAIR" INDICATES FEW OR NO CLOUDS BELOW 12,000 FEET WITH NO
SIGNIFICANT WEATHER AND/OR OBSTRUCTIONS TO VISIBILITY.

* - STATION DOES NOT REPORT WEATHER SUCH AS PRECIPITATION OR FOG.

+ - STATION NOT QUALITY CONTROLLED BY THE NATIONAL WEATHER SERVICE.
    USE DATA WITH CAUTION...ESPECIALLY DEWPOINT AND RELATIVE
    HUMIDITY OBSERVATIONS.

INZ001>003-010>013-019-020-061700-
NORTHWEST INDIANA

CITY           SKY/WX    TMP DP  RH WIND       PRES   REMARKS
GARY /AIRPORT/ MOSUNNY   68 N/A N/A SE7       30.18S HAZE

$$

LMZ046-743>745-061700-
SOUTHERN LAKE MICHIGAN

STATION/POSITION TIME  TEMP    WIND        PRES    WAVE
                       AIR SEA DIR/SP/G            HT
                 (UTC) (F)     (DEG/KT/KT) (MB)    (FT)
BURNS HARBOR     1500   68     190/  2/  5 1022.4S
MICHIGAN CITY    1500   64     120/  6/  9   N/A
5NW MICH CITY    1500   60 53   CALM  /  2   N/A     1

$$

INZ004-005-014>016-021>024-061700-
NORTH CENTRAL INDIANA

CITY           SKY/WX    TMP DP  RH WIND       PRES   REMARKS
ELKHART        MOSUNNY   63  57  82 S6        30.22S FOG
GOSHEN         LGT RAIN  62  57  83 SE6       30.22R
SOUTH BEND     MOSUNNY   65  57  75 SE7       30.20F

$$

INZ006>009-017-018-025>027-061700-
NORTHEAST INDIANA

CITY           SKY/WX    TMP DP  RH WIND       PRES   REMARKS
ANGOLA *+      CLOUDY    57  46  67 SE5       30.24R
FORT WAYNE     PTSUNNY   65  57  75 E5        30.24S HAZE

$$

INZ028-029-035-036-043>045-051>053-061700-
WEST CENTRAL INDIANA

CITY           SKY/WX    TMP DP  RH WIND       PRES   REMARKS
CRAWFORDSVL +  SUNNY     78  43  28 SW8       30.20S
GREENCASTLE +  SUNNY     79  48  34 SW5       30.21S
LAFAYETTE      SUNNY     78  58  49 VRB5      30.19S
TERRE HAUTE    SUNNY     81  54  39 W5        30.19F

$$

INZ030>032-037>040-046>048-054>057-064-065-061700-
CENTRAL INDIANA

CITY           SKY/WX    TMP DP  RH WIND       PRES   REMARKS
ANDERSON       SUNNY     79  46  31 W6        30.22F
GREENWOOD *+   SUNNY     81  50  34 W3        30.22S
INDIANAPOLIS   MOSUNNY   81  55  40 VRB6      30.20S
-EAGLE CREEK   SUNNY     79  55  43 VRB3      30.20S
KOKOMO *+      MOSUNNY   72  61  68 CALM      30.21S
MT COMFORT *+  SUNNY     81  36  19 W6        30.22S
SHELBYVILLE    SUNNY     83  55  38 NW5       30.21S

$$

INZ033-034-041-042-049-050-058-059-061700-
EAST CENTRAL INDIANA

CITY           SKY/WX    TMP DP  RH WIND       PRES   REMARKS
MUNCIE         FAIR      79  58  48 NW9       30.21F

$$

INZ060-061-067>069-081>083-085>088-061700-
SOUTHWEST INDIANA

CITY           SKY/WX    TMP DP  RH WIND       PRES   REMARKS
EVANSVILLE     MOSUNNY   80  55  42 SW3       30.20F
HUNTINGBURG *+ PTSUNNY   79  55  44 SW3       30.21S

$$

INZ062-063-066-070>080-084-089>092-061700-
SOUTH CENTRAL AND SOUTHEAST INDIANA

CITY           SKY/WX    TMP DP  RH WIND       PRES   REMARKS
BLOOMINGTON    SUNNY     81  52  36 VRB5      30.21S
MADISON *+     SUNNY     81  50  34 S5        30.24S
SEYMOUR +      SUNNY     82  57  42 CALM      30.21S

$$




USA.gov is the U.S. government's official web portal to all federal, state and local government web resources and services.